Regional Weather Roundup
Issued by NWS

Home | Current Version | Previous Version | Graphics & Text | Print | Product List | Glossary On
Versions: 1 2 3 4 5 6 7 8 9 10 11 12 13 14 15 16 17 18 19 20 21 22 23 24 25 26 27 28 29 30 31 32 33 34 35 36 37 38 39 40 41 42 43 44 45 46 47 48 49 50
000
ASUS43 KLOT 160410
RWRIL

ILLINOIS REGIONAL WEATHER ROUNDUP
NATIONAL WEATHER SERVICE CHICAGO/ROMEOVILLE IL
1100 PM CDT TUE APR 15 2014

NOTE: "FAIR" INDICATES FEW OR NO CLOUDS BELOW 12,000 FEET WITH NO
SIGNIFICANT WEATHER AND/OR OBSTRUCTIONS TO VISIBILITY.

* THESE STATIONS ARE NOT UNDER NWS QUALITY CONTROL. THEY ALSO MAY NOT
  REPORT WEATHER SUCH AS PRECIPITATION OR FOG.

ILZ001-002-007-009-015-016-024-160500-
NORTHWEST ILLINOIS

CITY           SKY/WX    TMP DP  RH WIND       PRES   REMARKS
MOLINE         CLEAR     28  19  69 E5        30.16S WCI  23
STERLING*      CLEAR     28  21  74 CALM      30.18R
SAVANNA*       CLEAR     29  22  74 E3        30.17S
$$

ILZ003-004-008-010-011-017-018-160500-
NORTH CENTRAL ILLINOIS

CITY           SKY/WX    TMP DP  RH WIND       PRES   REMARKS
ROCKFORD       CLEAR     29  20  69 CALM      30.20R
FREEPORT*      CLEAR     29  24  84 CALM      30.19R
ROCHELLE*      CLEAR     27  22  80 SE3       30.19R
DE KALB*       CLEAR     26  20  76 S6        30.18S WCI  20
PERU*          CLEAR     34  20  56 CALM      30.19R
$$

ILZ005-006-012>014-019>023-160500-
NORTHEAST ILLINOIS

CITY           SKY/WX    TMP DP  RH WIND       PRES   REMARKS
CHICAGO-OHARE  CLEAR     31  19  61 S5        30.19S WCI  26
CHICAGO-MIDWAY CLEAR     34  21  59 S5        30.20S WCI  30
AURORA         CLEAR     29  21  72 SE3       30.19S
LANSING*       CLEAR     28  20  74 CALM      30.21F
WAUKEGAN       CLEAR     27  22  81 CALM      30.19S
DUPAGE AIRPORT CLEAR     29  20  69 SE5       30.18S WCI  24
KANKAKEE*      CLEAR     32  23  70 SE3       30.21F
WHEELING       CLEAR     30  20  66 CALM      30.21S
MORRIS*        CLEAR     32  21  64 S3        30.20S
ROMEOVILLE*    CLEAR     29  21  71 SE6       30.20S WCI  23
NORTHERLY ISL    N/A     34  20  57 S5          N/A  WCI  30
$$

LMZ740>746-160500-
SOUTHERN LAKE MICHIGAN

STATION/POSITION SKY/WX   TEMP    WIND        PRES    VSBY  WAVE
                          AIR SEA DIR/SP/G                  HT/PER
                          (F)     (DEG/KT/KT) (MB)    (MI)  (FT/S)
WAUKEGAN HARBOR            34     170/ 11/ 13 1023.7S
HARRISON CRIB              36     190/  8/ 10   N/A
BURNHAM HARBOR             33     170/  4/  6   N/A
CALUMET HARBOR             33     150/  3/  5 1023.7R
MICHIGAN CITY              31     130/  5/  7   N/A
$$

ILZ025>027-034>036-040-047-049-050-058-095>099-160500-
WEST-CENTRAL ILLINOIS

CITY           SKY/WX    TMP DP  RH WIND       PRES   REMARKS
QUINCY         CLEAR     37  22  54 S7        30.16R WCI  32
GALESBURG*     CLEAR     32  23  69 E3        30.16S
MACOMB*        CLEAR     32  24  73 SE5       30.19R WCI  27
JACKSONVILLE*  CLEAR     36  22  57 SE5       30.20R WCI  32
PITTSFIELD*    PTCLDY    38  24  58 S6        30.18S WCI  33
$$

ILZ028>032-037-038-041>044-048-051>054-059>061-160500-
CENTRAL ILLINOIS

CITY           SKY/WX    TMP DP  RH WIND       PRES   REMARKS
PONTIAC        CLEAR     32  27  80 SE6       30.20S WCI  26
BLOOMINGTON    CLEAR     30  18  61 S8        30.20S WCI  22
DECATUR        CLEAR     33  23  66 SE6       30.21S WCI  28
PEORIA         CLEAR     33  20  58 E3        30.19R
LACON*         CLEAR     32  18  57 CALM      30.18S
LINCOLN*       CLEAR     33  24  71 S3        30.20F
SPRINGFIELD    CLEAR     34  22  61 SE6       30.20S WCI  29
TAYLORVILLE    CLEAR     34  27  75 SE6       30.21S WCI  29
$$

ILZ033-039-045-046-055>057-062-063-160500-
EAST-CENTRAL ILLINOIS

CITY           SKY/WX    TMP DP  RH WIND       PRES   REMARKS
CHAMPAIGN      CLEAR     30  26  85 SE7       30.21F WCI  23
RANTOUL*       CLEAR     33  26  75 CALM      30.22S
MATTOON        FAIR      33  24  69 S3        30.22S
PARIS*         CLEAR     32  26  77 CALM      30.24S
$$

ILZ079-100>102-160500-
SOUTHWEST ILLINOIS

CITY           SKY/WX    TMP DP  RH WIND       PRES   REMARKS
ALTON          PTCLDY    33  26  72 SE6       30.22S WCI  28
BELLEVILLE     CLEAR     36  25  64 SE5       30.22R WCI  32
CAHOKIA*       CLEAR     38  25  59 SE3       30.22R
SPARTA*        CLEAR     36  27  69 SE6       30.24S WCI  31
$$

ILZ064>066-069>071-074>076-080>082-084>086-088>090-092>094-160500-
SOUTH-CENTRAL ILLINOIS

CITY           SKY/WX    TMP DP  RH WIND       PRES   REMARKS
CARBONDALE     CLEAR     36  26  67 SE5       30.24R WCI  32
CAIRO*         CLEAR     42  27  54 E6        30.26R
MARION         CLEAR     36  28  75 SE3       30.25R
MT. VERNON     CLEAR     32  19  59 CALM      30.24S
CENTRALIA*       N/A     34  27  76 SE3       30.23S
SALEM*         CLEAR     38  27  64 CALM      30.23S
METROPOLIS*    CLEAR     37  24  60 CALM      30.24S
$$

ILZ067-068-072-073-078-083-087-091-160500-
SOUTHEAST ILLINOIS

CITY           SKY/WX    TMP DP  RH WIND       PRES   REMARKS
FLORA*         CLEAR     32  29  88 CALM      30.25R
FAIRFIELD*     CLEAR     36  28  75 CALM      30.25R
HARRISBURG*    CLEAR     35  28  76 CALM      30.27R
ROBINSON*      CLEAR     33  31  90 CALM      30.25S
CARMI*         CLEAR     38  30  71 CALM      30.24S
$$

ABBREVIATIONS USED IN REMARKS
   TC - TEMPERATURE IN CELSIUS
  WCI - WIND CHILL INDEX
   HX - HEAT INDEX
  VSB - VISIBILITY
$$




USA.gov is the U.S. government's official web portal to all federal, state and local government web resources and services.